User: anonymous   Login
Location: Mississauga
(43.5802°N, 79.6166°W)
Time: 09:37:28
(UTC-05:00)
Language:

Cosmos 1437 Rocket - Orbit

View from above orbital plane
View from above orbital plane
View from above satellite
View from above satellite

Ground track
Ground track

The orbit data is extracted from the following two-line orbital elements,

1 13771U 83003B   16344.78385581  .00000152  00000-0  78432-5 0  9993
2 13771  81.1399 221.3315 0042231 275.6742  83.9668 15.09539181845216
Epoch (UTC): 09 December 2016 18:48:45
Eccentricity: 0.0042231
inclination: 81.1399°
perigee height: 508 km
apogee height: 567 km
right ascension of ascending node: 221.3315°
argument of perigee: 275.6742°
revolutions per day: 15.09539181
mean anomaly at epoch: 83.9668°
orbit number at epoch: 84521

The dashed part of the orbit path shows where the satellite is in the earth's shadow,  

DLR